Погода в Вологде

Погода в Вологде : погода сейчас, прогноз погоды и архив. Всё, что Вы хотите узнать о погоде в Вологде!

Хотите узнать прогноз погоды в Вологде? Тогда Вам сюда: Погода в Вологде

Поиск расширенной информации на нашем сайте:

Полезная информация:

Другие новости

Новости СМИ2

Главная страница сайта

Новости сайта

03.07.2017

Напоминаем, что на нашем специализированном сайте Метеоцентр.Азия вы можете получить высокодетализированные автоматические прогнозы погоды по пунктам России, СНГ и мира в авиационном формате (включающие направление и скорость ветра, видимость, явления погоды, количество и форму облачности, нижнюю и верхнюю границу облачности).

Рекомендуем:

Погода в Вологде - сегодня

Время (UTC), дата Ветер
(°,м/с) 
Видим.   Явления Облачность Т
(°С)
Тd
(°С)
f(%) Тe
(°С)
Pmin
(гПа)
dP
(гПа)
Po
(мм)
O2
(г/м3)
Тmin Tmax R s Состояние
почвы
21 18.05.19 040 (СВ) 20000 м    ясно 
+4.1 -3.2 59 +3  1018  1.2  751  299           
00 19.05.19 310 (СЗ) 20000 м    ясно 
-0.6 -3.3 82 1019.6  1.2  752  304           
03 19.05.19 340 (С) 20000 м    ясно 
+5.4 -3.2 54 +4  1019.8  0.6  753  298  -1.7        сухая 
06 19.05.19 360 (С) 5{10}  20000 м    6/6 1000 м 
[Sc]
+7.3 -4 44 +6  1020  0.3  753  296           
09 19.05.19 330 (СЗ) 4{10}  20000 м    4/4 600 м 
[Cu hum]
+10.2 -3 39 +9  1020.2  0.4  753  293           
12 19.05.19 320 (СЗ) 5-12{12}  20000 м    3/3 600 м 
[Cu hum]
+11.6 -2.8 36 +11  1020.2  753  291           
15 19.05.19 320 (СЗ) 20000 м    ясно 
+12 -2.9 35 +11  1020.2  0.1  753  291    +12.5       
18 19.05.19 310 (СЗ) 20000 м    ясно 
+7.8 -1.9 50 +8  1020.7  0.2  753  295           
21 19.05.19 340 (С) 20000 м    ясно 
+1 -2.2 79 +2  1021.9  0.8  754  303           
00 20.05.19 320 (СЗ) 20000 м    ясно 
-0.3 -3 82 1022.8  0.8  755  305           
03 20.05.19 330 (СЗ) 20000 м    1/0 верхняя 
[Ci fib]
+6.3 -0.8 60 +6  1023.4  755  298  -2        сухая 
06 20.05.19 340 (С) 20000 м    3/1 600 м верхняя 
[Cu hum|Ci fib]
+11 -2 40 +10  1023.1  755  293           
09 20.05.19 330 (СЗ) 20000 м    4/1 600 м верхняя 
[Cu hum|Ci]
+13.2 -1.9 35 +14  1022.6  -0.4  755  290           
12 20.05.19 310 (СЗ) 20000 м    3/1 600 м верхняя 
[Cu hum|Ci fib]
+15 -3.1 29 +15  1021.8  -0.7  755  289           
15 20.05.19 320 (СЗ) 20000 м    3/0 верхняя 
[Ci fib]
+15.5 -4.2 25 +15  1020.9  -0.9  754  288    +15.8       
18 20.05.19 тихо ()   20000 м    3/0 верхняя 
[Ci fib]
+7.5 -1.2 54 +8  1021.2  -0.1  754  296           
21 20.05.19 тихо ()   20000 м    3/0 верхняя 
[Ci fib]
+3.7 +0 77 +4  1021.6  0.2  754  300           
00 21.05.19 тихо ()   20000 м    9/4 2000 м средняя, верхняя 
[Ac trans|Ci fib]
+0.7 -0.7 90 +1  1022  0.2  754  303           
03 21.05.19 210 (ЮЗ) 20000 м    10/8 660 м средняя 
[Sc|Ac und]
+5.8 +1.5 74 +7  1021.9  0.2  754  297  +0.2        сухая 
06 21.05.19 200 (Ю) 20000 м    10/10 2000 м 
[Ac As]
+12.1 +0.2 44 +13  1021  -0.5  754  291           
09 21.05.19 250 (З) 10 км  слаб. дождь  10/3 600 м средняя 
[Sc|As op]
+10.4 +6.1 75 +12  1020.9  -0.2  754  292           
12 21.05.19 160 (Ю) 10 км  слаб. дождь  10/3 600 м средняя 
[Sc|Ac As]
+10.7 +7.5 81 +11  1019.3  -1.6  753  291           
15 21.05.19 140 (ЮВ) 10 км  слаб. дождь  10/6 600 м средняя 
[Sc|As op]
+9.8 +8.1 89 +10  1017.6  -1.7  751  291    +12.8     
18 21.05.19 120 (ЮВ) 10 км  слаб. дождь  10/6 600 м средняя 
[Sc|As op]
+9.3 +8.1 92 +9  1016.2  -1.4  750  291           
21 21.05.19 130 (ЮВ) 20000 м  {дождь}  10/8 960 м средняя 
[Sc|As op]
+9.3 +8.1 92 +10  1015.4  -0.8  750  291           
Время (UTC), дата Ветер
(°,м/с) 
Видим.   Явления Облачность Т
(°С)
Тd
(°С)
f(%) Тe
(°С)
Pmin
(гПа)
dP
(гПа)
Po
(мм)
O2
(г/м3)
Тmin Tmax R s Состояние
почвы

Для получения пояснительной информации подведите курсор к названию столбца.

ПОГОДА в Вологде - архив

Всё, что Вы хотите узнать о погоде в Вологде - удобно и подробно!

Выберите нужную дату (начиная с 1 января 2018* года) и нажмите кнопку "Найти".
Будут отображены архивные сводки погоды по пункту Вологда, начиная с указанной даты.


Отображать данные в формате CSV (для использования в таблицах Excel)


Внимание! Наш архив погоды предназначен исключительно для личного некоммерческого использования в познавательных целях. Если Вам необходимы официальные справки о состоянии погоды (для производственных, юридических, коммерческих и т.п. целей), обращайтесь в органы Росгидромета.

*Примечание: данная дата относится к архиву по метеостанциям СССР (Россия, СНГ, Балтия).
Архив по метеостанциям Зарубежной Европы и Азии (кроме Китая) хранится 10 дней, по другим регионам земного шара (Китай, Африка, Америка, Австралия, Океания) - 1 день.

Вологда - район местоположения метеостанции


Название, широта, долгота, высота метеостанции:
Вологда (город) 59.3°ш. 39.9°д. 130 м над ур. моря [Российская Федерация]

Дополнительная информация

В oтличие oт бoльшинства пoгoдных сайтoв мы публикуем пoдрoбную метеoинфoрмацию в детальнoм прoфессиoнальнoм фoрмате.

Характеристики температуры и влажнoсти вoздуха измеряются на высoте 2 м в тени вдали oт зданий и деревьев.
Скoрoсть ветра измеряется на высoте 10 м (на урoвне рoста челoвека скoрoсть ветра ниже в 1.5-2 раза). Если метеoстанция нахoдится в гoрoде или в лесу, тo скoрoсть ветра занижена на 2-4 м/с пo сравнению с oткрытым местoм. Скoрoсть ветра над акватoриями крупных рек и oзёр, а также на вершинах хoлмoв на 2-5 м/с выше, чем в oбычных услoвиях.
Атмoсфернoе давление в разных тoчках местнoсти мoжет значительнo oтличаться oт давления на метеoстанции, в зависимoсти oт услoвий рельефа (при пoдъёме на 10 м давление пoнижается примернo на 1 мм рт.ст.).